Костино

Россия / Красноярский край     65°19′19″N   87°58′42″E
темп.,
°C
ветер,
м/с
пор.,
м/с
влажн.,
%
обл.,
%
осадки,
мм/ч
давл.,
гПа
погр.,
м
6 марта, сб
сб601:00−9вюв3895100 1.3 999225
04:00−7ююв61294100 0.7 999320
07:00−9юв4994100 0.9 999229
10:00−6ююв5995100 0.5 999411
13:00−7зюз4595100 1.4 999292
16:00−9зюз3492100 0.4 999290
19:00−13ююв229797 0.5 99921
22:00−11вюв2295100 0.0 99921
7 марта, вс
вс701:00−11в2292100 0.1 99721
04:00−10в2495100 0.3 996112
07:00−9в3595100 0.7 996128
10:00−9в1294100 0.3 995121
13:00−7зсз119099 0.4 996277
16:00−7зсз2391100 0.3 998341
19:00−9сз3596100 0.6 1000125
22:00−12сз4796100 0.4 1003187
8 марта, пн
пн801:00−16зсз479799 0.7 1006197
04:00−21з2399100 0.2 101083
07:00−25ююз22100100 0.3 101224
10:00−22ю4798100 0.1 1013248
13:00−17ю5894100 0.1 1012365
16:00−13ююв4891100 0.1 1010480
19:00−14вюв3590100 0.2 1006111
22:00−13вюв51186100 0.0 1001312
9 марта, вт
вт901:00−12вюв51193100 0.6 996577
04:00−12всв4895100 0.7 991363
07:00−13ссв3496100 1.2 989100
10:00−13сз4796100 0.1 991265
13:00−14зсз6994100 0.3 995541
16:00−14з71093100 0.5 1001728
19:00−19зюз71097100 1.1 1005591
22:00−24зюз5998100 0.5 1009358
10 марта, ср
ср1001:00−27юз4699100 0.6 1010153
04:00−30ю23100100 0.0 101124
07:00−31ююв229899 0.1 100919
10:00−25вюв1294100 0.0 1007123
13:00−19ссв2292100 0.1 1004252
16:00−18с2294100 0.1 1004220
19:00−21ссз3499100 0.4 100489
22:00−25сз2299100 0.2 100520